Terminal Aerodrome Forecast
Issued by NWS Twin Cities, MN

Home | Current Version | Previous Version | Graphics & Text | Print | Product List | Glossary On
Versions: 1 2 3 4 5 6 7 8 9 10 11 12 13 14 15 16 17 18 19 20 21 22 23 24 25 26 27 28
000
FTUS43 KMPX 212300
TAFMSP
TAF
KMSP 212335Z 2200/2306 15011KT P6SM BKN040
     FM220700 15008KT P6SM VCSH SCT040 BKN100
     FM221000 23010KT P6SM BKN100
     FM221400 29013KT P6SM SCT030
     FM221800 31016G24KT P6SM SCT040 SCT250=

USA.gov is the U.S. government's official web portal to all federal, state and local government web resources and services.